Date String (YYYY-MM-DD hh:mm:ss) UTC,Instrument flags,absolute air pressure of the measurement (hPa),sample flow rate (lpm),inlet stack bypass flow (lpm),air temperature of the measurement (°C),ambient temperature measured by the external sensor (°C),aerosol sample conditioner tube jacket temperature (°C),OPC LED temperature (°C),internal box temperature (°C),relative humidity of the measurement (%),span deviation,mass concentration of particles derived from Lorenz-Mie calculation of OPC scattering (μg/m³),mass concentration of particles derived from Lorenz-Mie calculation of OPC scattering (μg/m³),mass concentration of particles derived from Lorenz-Mie calculation of OPC scattering (μg/m³)
DateTimeUTC,F1_M11,P_M11,Q1_M11,Q2_M11,T1_M11,T2_M11,T3_M11,T4_M11,T5_M11,U1_M11,ZSPAN_M11,X0_M11,X2_M11,X1_M11
2023-09-04 08:00:00,SystemResetWarning,0826.6,5.00,000.00,028.8,027.3,000.0,037.1,030.1,31.0,0000.0,0004.33,0001.88,0001.43
2023-09-04 08:01:00,SystemResetWarning,0826.6,4.99,000.00,028.8,027.3,000.0,037.1,030.1,30.7,0000.0,0004.44,0001.90,0001.43
2023-09-04 08:02:00,SystemResetWarning,0826.6,4.99,000.00,028.9,027.3,000.0,037.1,030.1,30.8,0000.0,0004.48,0001.92,0001.44
2023-09-04 08:03:00,SystemResetWarning,0826.6,4.99,000.00,028.9,027.4,000.0,037.1,030.2,30.5,0000.0,0004.44,0001.90,0001.44
2023-09-04 08:04:00,SystemResetWarning,0826.6,5.00,000.00,028.9,027.4,000.0,037.1,030.2,30.3,0000.0,0004.38,0001.87,0001.44
2023-09-04 08:05:00,SystemResetWarning,0826.6,5.00,000.00,028.9,027.5,000.0,037.1,030.2,30.3,0000.0,0004.75,0001.88,0001.44
2023-09-04 08:06:00,SystemResetWarning,0826.6,5.01,000.00,028.9,027.5,000.0,037.2,030.3,30.2,0000.0,0005.26,0001.92,0001.45
2023-09-04 08:07:00,SystemResetWarning,0826.6,5.00,000.00,028.9,027.3,000.0,037.2,030.3,30.0,0000.0,0005.28,0001.96,0001.47
2023-09-04 08:08:00,SystemResetWarning,0826.6,4.98,000.00,028.9,025.9,000.0,037.1,029.8,30.2,0000.0,0005.10,0001.95,0001.50
2023-09-04 08:09:00,SystemResetWarning,0826.6,5.01,000.00,028.7,024.8,000.0,037.0,029.5,30.5,0000.0,0005.02,0001.93,0001.52
2023-09-04 08:10:00,SystemResetWarning,0826.6,5.01,000.00,028.6,024.6,000.0,037.0,029.3,30.8,0000.0,0005.01,0001.97,0001.55
2023-09-04 08:11:00,SystemResetWarning,0826.6,5.00,000.00,028.5,024.9,000.0,036.9,029.4,31.1,0000.0,0003.89,0001.99,0001.56
2023-09-04 08:12:00,SystemResetWarning,0826.6,5.00,000.00,028.4,025.3,000.0,036.9,029.5,31.3,0000.0,0003.57,0001.98,0001.59
2023-09-04 08:13:00,SystemResetWarning,0826.6,4.99,000.00,028.4,025.6,000.0,036.9,029.6,31.4,0000.0,0003.50,0001.97,0001.63
2023-09-04 08:14:00,SystemResetWarning,0826.6,5.00,000.00,028.4,025.9,000.0,036.9,029.6,31.5,0000.0,0003.63,0002.04,0001.66
2023-09-04 08:15:00,SystemResetWarning,0826.6,5.00,000.00,028.4,026.2,000.0,036.9,029.7,31.6,0000.0,0003.84,0002.15,0001.72
2023-09-04 08:16:00,SystemResetWarning,0826.6,5.00,000.00,028.4,026.4,000.0,036.9,029.8,31.8,0000.0,0004.10,0002.28,0001.78
2023-09-04 08:17:00,SystemResetWarning,0826.6,5.00,000.00,028.5,026.6,000.0,036.9,029.8,31.9,0000.0,0004.70,0002.31,0001.85
2023-09-04 08:18:00,SystemResetWarning,0826.6,5.01,000.00,028.5,026.7,000.0,036.9,029.9,32.1,0000.0,0004.64,0002.33,0001.88
2023-09-04 08:19:00,SystemResetWarning,0826.6,5.00,000.00,028.5,026.9,000.0,036.9,029.9,32.3,0000.0,0004.75,0002.38,0001.89
2023-09-04 08:20:00,SystemResetWarning,0826.6,5.00,000.00,028.5,027.0,000.0,036.9,030.0,32.3,0000.0,0004.79,0002.40,0001.90
2023-09-04 08:21:00,SystemResetWarning,0826.6,5.00,000.00,028.5,027.1,000.0,036.9,030.0,32.6,0000.0,0004.82,0002.42,0001.92
2023-09-04 08:22:00,SystemResetWarning,0826.6,5.00,000.00,028.6,027.2,000.0,036.9,030.0,32.7,0000.0,0005.40,0002.44,0001.94
2023-09-04 08:23:00,SystemResetWarning,0826.6,5.00,000.00,028.6,027.2,000.0,036.9,030.1,32.8,0000.0,0005.95,0002.47,0001.98
2023-09-04 08:24:00,SystemResetWarning,0826.6,5.00,000.00,028.6,027.3,000.0,036.9,030.1,32.8,0000.0,0006.08,0002.53,0002.00
2023-09-04 08:25:00,SystemResetWarning,0826.6,5.00,000.00,028.6,027.3,000.0,036.9,030.2,31.6,0000.0,0006.12,0002.53,0001.99
2023-09-04 08:26:00,SystemResetWarning,0826.6,5.00,000.00,028.6,027.4,000.0,036.9,030.2,29.6,0000.0,0006.10,0002.51,0001.99
2023-09-04 08:27:00,SystemResetWarning,0826.6,5.00,000.00,028.7,027.4,000.0,037.0,030.2,28.8,0000.0,0005.90,0002.47,0001.98
2023-09-04 08:28:00,SystemResetWarning,0826.6,5.00,000.00,028.7,027.5,000.0,037.0,030.2,28.4,0000.0,0004.76,0002.42,0001.94
2023-09-04 08:29:00,SystemResetWarning,0826.6,5.00,000.00,028.7,027.5,000.0,037.0,030.3,28.4,0000.0,0004.43,0002.37,0001.92
2023-09-04 08:30:00,SystemResetWarning,0826.6,4.99,000.00,028.7,027.3,000.0,037.0,030.2,28.6,0000.0,0004.29,0002.30,0001.91
2023-09-04 08:31:00,SystemResetWarning,0826.6,5.00,000.00,028.7,025.8,000.0,036.9,029.7,28.8,0000.0,0004.26,0002.29,0001.90
2023-09-04 08:32:00,SystemResetWarning,0826.4,5.00,000.00,028.5,024.7,000.0,036.8,029.5,28.4,0000.0,0004.22,0002.27,0001.88
2023-09-04 08:33:00,SystemResetWarning,0826.4,5.01,000.00,028.4,024.7,000.0,036.8,029.4,28.7,0000.0,0003.75,0002.27,0001.87
2023-09-04 08:34:00,SystemResetWarning,0826.4,5.01,000.00,028.3,024.9,000.0,036.8,029.4,28.9,0000.0,0003.03,0002.24,0001.85
2023-09-04 08:35:00,SystemResetWarning,0826.4,4.99,000.00,028.3,025.3,000.0,036.8,029.5,29.2,0000.0,0002.97,0002.20,0001.84
2023-09-04 08:36:00,SystemResetWarning,0826.4,5.00,000.00,028.3,025.6,000.0,036.8,029.5,29.3,0000.0,0003.01,0002.20,0001.84
2023-09-04 08:37:00,SystemResetWarning,0826.4,5.00,000.00,028.3,025.9,000.0,036.8,029.6,29.2,0000.0,0002.91,0002.15,0001.82
2023-09-04 08:38:00,SystemResetWarning,0826.4,5.01,000.00,028.3,026.2,000.0,036.8,029.7,29.1,0000.0,0002.76,0002.11,0001.80
2023-09-04 08:39:00,SystemResetWarning,0826.4,5.00,000.00,028.3,026.4,000.0,036.8,029.7,29.0,0000.0,0002.87,0002.14,0001.81
2023-09-04 08:40:00,SystemResetWarning,0826.4,5.00,000.00,028.3,026.6,000.0,036.8,029.8,28.7,0000.0,0003.03,0002.18,0001.81
2023-09-04 08:41:00,SystemResetWarning,0826.4,4.99,000.00,028.3,026.7,000.0,036.8,029.8,28.6,0000.0,0003.87,0002.24,0001.82
2023-09-04 08:42:00,SystemResetWarning,0826.4,5.00,000.00,028.3,026.9,000.0,036.8,029.8,28.6,0000.0,0003.90,0002.25,0001.82
2023-09-04 08:43:00,SystemResetWarning,0826.4,5.00,000.00,028.4,027.0,000.0,036.8,029.9,28.6,0000.0,0003.99,0002.28,0001.83
2023-09-04 08:44:00,SystemResetWarning,0826.4,4.99,000.00,028.4,027.0,000.0,036.8,029.9,28.6,0000.0,0003.98,0002.25,0001.83
2023-09-04 08:45:00,SystemResetWarning,0826.4,5.00,000.00,028.4,027.1,000.0,036.8,030.0,28.7,0000.0,0004.04,0002.25,0001.82
2023-09-04 08:46:00,SystemResetWarning,0826.4,5.01,000.00,028.4,027.2,000.0,036.8,030.0,28.6,0000.0,0004.11,0002.24,0001.81
2023-09-04 08:47:00,SystemResetWarning,0826.3,5.01,000.00,028.5,027.3,000.0,036.8,030.0,28.6,0000.0,0004.08,0002.26,0001.83
2023-09-04 08:48:00,SystemResetWarning,0826.4,5.00,000.00,028.5,027.3,000.0,036.8,030.1,28.5,0000.0,0004.07,0002.26,0001.84
2023-09-04 08:49:00,SystemResetWarning,0826.4,5.00,000.00,028.5,027.3,000.0,036.8,030.1,28.4,0000.0,0004.18,0002.30,0001.83
2023-09-04 08:50:00,SystemResetWarning,0826.4,4.99,000.00,028.5,027.4,000.0,036.9,030.1,28.3,0000.0,0004.41,0002.30,0001.83
2023-09-04 08:51:00,SystemResetWarning,0826.4,4.99,000.00,028.6,027.4,000.0,036.9,030.1,28.3,0000.0,0004.43,0002.29,0001.83
2023-09-04 08:52:00,SystemResetWarning,0826.4,5.01,000.00,028.6,027.4,000.0,036.9,030.2,28.2,0000.0,0003.96,0002.28,0001.82
2023-09-04 08:53:00,SystemResetWarning,0826.4,4.99,000.00,028.6,026.4,000.0,036.8,029.9,28.3,0000.0,0003.66,0002.25,0001.83
2023-09-04 08:54:00,SystemResetWarning,0826.4,5.01,000.00,028.4,025.0,000.0,036.8,029.4,28.5,0000.0,0003.56,0002.22,0001.83
2023-09-04 08:55:00,SystemResetWarning,0826.4,5.01,000.00,028.3,024.5,000.0,036.7,029.3,28.7,0000.0,0003.50,0002.20,0001.83
2023-09-04 08:56:00,SystemResetWarning,0826.4,5.01,000.00,028.2,024.7,000.0,036.7,029.3,28.8,0000.0,0003.52,0002.22,0001.84
2023-09-04 08:57:00,SystemResetWarning,0826.4,4.99,000.00,028.2,025.0,000.0,036.7,029.4,29.0,0000.0,0003.37,0002.22,0001.85
2023-09-04 08:58:00,SystemResetWarning,0826.4,4.99,000.00,028.1,025.4,000.0,036.7,029.4,29.2,0000.0,0003.40,0002.23,0001.86
2023-09-04 08:59:00,SystemResetWarning,0826.4,5.00,000.00,028.1,025.7,000.0,036.7,029.5,29.9,0000.0,0004.60,0002.27,0001.88
